Location: ?????
(31.8092°N, 35.2590°E)
Time: 20:07:46
(UTC+00:00)

Cosmos 2333 Rocket - Pass Details

Date: 20 June 2021
Orbit: 841 x 861 km, 70.8° (Epoch: 31 July)

Event Time Altitude Azimuth Distance (km) Brightness Sun altitude
Exits shadow 18:32:34 11° 192° (SSW) 2,432 4.3 -18.8°
Maximum altitude 18:38:08 75° 108° (ESE) 888 2.1 -19.6°
Drops below altitude 10° 18:43:51 10° 24° (NNE) 2,489 4.9 -20.4°
Sets 18:46:18 0° 23° (NNE) 3,426 5.7 -20.8°
